Tracking 29747 objects as of 9-Oct-2024
HD Live streaming from Space Station
objects crossing your sky now

SL-14 DEB

Track SL-14 DEB now!
10-day predictions


NORAD ID: 45296
Int'l Code: 1991-056AJ
Perigee: 853.7 km
Apogee: 1,156.7 km
Inclination: 82.6 °
Period: 105.1 minutes
Semi major axis: 7376 km
RCS: Unknown
Launch date: August 15, 1991
Source: Commonwealth of Independent States (former USSR) (CIS)
Launch site: PLESETSK MISSILE AND SPACE COMPLEX (PKMTR)

Note: This is SATELLITE DEBRIS
Your satellite tracking list
Your tracking list is empty




NASA's NSSDC Master Catalog

Two Line Element Set (TLE):
1 45296U 91056AJ  24283.31976990  .00013315  00000-0  12953-1 0  9994
2 45296  82.6433 134.6653 0205380 190.0720 169.6291 13.70411192229577
Source of the keplerian elements: AFSPC